Content
SEND FEEDBACK

Daily
Averages
Monthly
Summary
United Kingdom

BIRSAY, ORKNEY ISLANDS


Home > Europe > United Kingdom > Orkney Islands
Elevation: 72 feet     Latitude: 59 01N     Longitude: 003 18W

WEATHER
 
SELECT A DAY
Number of Records: 228,031;   Date Range: 9/10/96 - 7/23/14
 
SHARE

PRINT THIS DATA

[ ← Previous Day ]
WEATHER ALMANAC - FEBRUARY 13, 2013
[ Next Day → ]
[ °C ]   °F
Weather ElementAverageHighLow
Temperature37.7 °F41 °F (9:20 pm)33.8 °F (9:50 am)
Dewpoint32.1 °F37.4 °F (11:20 pm)26.6 °F (8:20 am)
Humidity79.9 %93 % (10:50 am)62 % (5:50 am)
Barometer29.66 in30.04 in (1:20 am)29.33 in (8:20 pm)
Wind Speed30.5 mph39.1 mph (11:50 am)
Wind Gust51.8 mph (12:20 pm)
Weather ElementAverage
Visibility4.6 mi
Wind DirectionS (184 °)

Weather ElementTotal
Precipitation---
Heating Degree Days27.6 (Base 65)
Averaged from 55 records on February 13, 2013
WEATHER CONDITIONS BREAKOUT
WIND DIRECTION BREAKOUT
WEATHER BY HOUR - FEBRUARY 13, 2013
[ °C ]   °F
Local TimeTemperatureDewpointHumidityBarometerVisibilityWind DirectionWind SpeedGust SpeedPrecipitationEventsConditions
12:50 AM39.2 °F30.2 °F70 %30.01 in6.2 miSouth (190°)20.7 mphPartly Cloudy
1:20 AM37.4 °F30.2 °F75 %30.04 in6.2 miSouth (190°)19.6 mphScattered Clouds
1:50 AM37.4 °F32.0 °F81 %30.01 in6.2 miSouth (180°)20.7 mphMostly Cloudy
2:20 AM39.2 °F30.2 °F70 %29.98 in6.2 miSouth (190°)23.0 mphScattered Clouds
2:50 AM38.0 °F31.0 °F67 %29.98 in9.0 miSSE (160°)24.2 mphScattered Clouds
2:50 AM39.2 °F30.2 °F70 %29.98 in6.2 miSouth (180°)21.9 mphMostly Cloudy
3:20 AM39.2 °F32.0 °F75 %29.95 in6.2 miSouth (180°)23.0 mphPartly Cloudy
3:50 AM37.4 °F30.2 °F75 %29.95 in6.2 miSouth (190°)20.7 mphPartly Cloudy
4:20 AM39.2 °F30.2 °F70 %29.95 in6.2 miSouth (190°)25.3 mphScattered Clouds
4:50 AM39.2 °F32.0 °F75 %29.92 in6.2 miSouth (180°)23.0 mphPartly Cloudy
5:20 AM39.2 °F30.2 °F70 %29.89 in6.2 miSouth (190°)24.2 mphPartly Cloudy
5:50 AM37.0 °F29.0 °F62 %29.90 in9.0 miSouth (170°)27.6 mph
5:50 AM39.2 °F28.4 °F65 %29.89 in6.2 miSouth (190°)26.5 mphPartly Cloudy
6:20 AM39.2 °F28.4 °F65 %29.89 in6.2 miSouth (190°)27.6 mphScattered Clouds
6:50 AM39.2 °F28.4 °F65 %29.86 in6.2 miSouth (190°)25.3 mphScattered Clouds
7:20 AM39.2 °F28.4 °F65 %29.86 in6.2 miSouth (190°)29.9 mphPartly Cloudy
7:50 AM37.4 °F28.4 °F70 %29.83 in6.2 miSouth (190°)28.8 mphPartly Cloudy
8:20 AM37.4 °F26.6 °F65 %29.83 in6.2 miSouth (190°)32.2 mphPartly Cloudy
8:50 AM36.0 °F29.0 °F65 %29.83 in6.0 miSouth (170°)34.5 mphScattered Clouds
8:50 AM37.4 °F28.4 °F70 %29.80 in6.2 miSouth (190°)31.1 mphMostly Cloudy
9:20 AM35.6 °F30.2 °F81 %29.80 in2.2 miSouth (190°)32.2 mph43.7 mphRain-SnowRain
9:50 AM33.8 °F30.2 °F87 %29.80 in1.6 miSouth (180°)33.4 mphSnowSnow
10:20 AM35.6 °F32.0 °F87 %29.77 in2.8 miSouth (180°)33.4 mph47.2 mphSnowLight Snow
10:50 AM33.8 °F32.0 °F93 %29.74 in1.9 miSouth (180°)34.5 mphSnowSnow
11:20 AM33.8 °F32.0 °F93 %29.74 in1.6 miSouth (180°)38.0 mph50.6 mphSnowSnow
11:50 AM34.0 °F32.0 °F89 %29.72 in1.0 miSouth (170°)39.1 mphRainRain
11:50 AM35.6 °F32.0 °F87 %29.71 in1.6 miSouth (190°)34.5 mph48.3 mphSnowSnow
12:20 PM35.6 °F32.0 °F87 %29.68 in2.5 miSouth (180°)39.1 mph51.8 mphSnowSnow
12:50 PM35.6 °F32.0 °F87 %29.68 in2.8 miSouth (180°)32.2 mph44.9 mphSnowLight Snow
1:20 PM35.6 °F32.0 °F87 %29.65 in2.5 miSouth (190°)33.4 mphSnowSnow
1:50 PM37.4 °F32.0 °F81 %29.62 in3.1 miSouth (190°)32.2 mph43.7 mphSnowSnow
2:20 PM37.4 °F33.8 °F87 %29.62 in3.1 miSouth (190°)33.4 mphSnowSnow
2:50 PM36.0 °F34.0 °F88 %29.59 in3.0 miSouth (170°)34.5 mphRainLight Rain
2:50 PM37.4 °F33.8 °F87 %29.59 in3.1 miSouth (190°)35.7 mphRain-SnowRain
3:20 PM37.4 °F32.0 °F81 %29.56 in3.7 miSouth (190°)33.4 mph46.0 mphRain-SnowRain
3:50 PM37.4 °F33.8 °F87 %29.53 in4.3 miSouth (190°)32.2 mph46.0 mphRain-SnowLight Rain
4:20 PM37.4 °F32.0 °F81 %29.50 in4.3 miSouth (190°)34.5 mph46.0 mphRain-SnowRain
4:50 PM37.4 °F32.0 °F81 %29.50 in2.5 miSouth (180°)35.7 mph47.2 mphRain-SnowRain
5:20 PM35.6 °F32.0 °F87 %29.47 in1.9 miSouth (180°)38.0 mph51.8 mphRain-SnowRain
5:50 PM35.0 °F33.0 °F92 %29.45 in3.0 miSSE (160°)34.5 mphSnowLight Snow
5:50 PM35.6 °F32.0 °F87 %29.44 in1.9 miSouth (180°)34.5 mph46.0 mphRain-SnowRain
6:20 PM37.4 °F32.0 °F81 %29.42 in2.5 miSouth (180°)35.7 mph51.8 mphRain-SnowRain
6:50 PM37.4 °F33.8 °F87 %29.39 in2.5 miSouth (180°)36.8 mphRain-SnowRain
7:20 PM37.4 °F33.8 °F87 %29.36 in3.1 miSouth (190°)33.4 mph44.9 mphRainLight Rain
7:50 PM39.2 °F35.6 °F87 %29.36 in3.1 miSouth (190°)35.7 mph47.2 mphRainLight Rain
8:20 PM39.2 °F35.6 °F87 %29.33 in4.3 miSouth (190°)35.7 mph48.3 mphRainLight Rain
8:50 PM38.0 °F36.0 °F88 %29.34 in4.0 miSouth (170°)35.7 mphRainLight Drizzle
8:50 PM39.2 °F35.6 °F87 %29.33 in5.0 miSouth (190°)35.7 mph48.3 mphLight Drizzle
9:20 PM41.0 °F35.6 °F81 %29.33 in6.2 miSouth (190°)31.1 mph42.6 mphOvercast
9:50 PM41.0 °F35.6 °F81 %29.33 in6.2 miSouth (190°)32.2 mphMostly Cloudy
10:20 PM41.0 °F35.6 °F81 %29.33 in6.2 miSouth (190°)28.8 mphMostly Cloudy
10:50 PM41.0 °F35.6 °F81 %29.33 in6.2 miSouth (190°)27.6 mphScattered Clouds
11:20 PM41.0 °F37.4 °F87 %29.33 in6.2 miSouth (190°)25.3 mph
11:50 PM40.0 °F37.0 °F87 %29.33 in7.0 miSouth (170°)23.0 mphScattered Clouds
11:50 PM41.0 °F37.4 °F87 %29.33 in6.2 miSouth (190°)21.9 mph
Hourly data recorded from EGPA, located miles away from Birsay, Orkney Islands







STORIES FROM OUR PARTNERS